This is the latest recevied weather packets stored in our database for station/object KE4AMH. If no packets are shown the sender has not sent any weather packets the latest 10 day(s).
| Time | Temp. | Humidity | Pressure | Rain* | Wind** | Luminosity | Snow |
|---|---|---|---|---|---|---|---|
| 1778127385 | 17.78° C | 99% | 1013 hPa | 3.05 mm | - | 0 W/m² | - |
| 1778127082 | 17.78° C | 99% | 1013.3 hPa | 3.05 mm | - | 0 W/m² | - |
| 1778126779 | 17.78° C | 99% | 1013 hPa | 3.05 mm | - | 0 W/m² | - |
| 1778126475 | 17.78° C | 99% | 1012.9 hPa | 3.05 mm | - | 0 W/m² | - |
| 1778126171 | 17.78° C | 99% | 1013 hPa | 1.78 mm | - | 0 W/m² | - |
| 1778125867 | 17.78° C | 99% | 1013.2 hPa | 1.27 mm | - | 0 W/m² | - |
| 1778125564 | 17.78° C | 99% | 1012.8 hPa | 1.78 mm | - | 0 W/m² | - |
| 1778125262 | 17.78° C | 99% | 1013.3 hPa | 1.78 mm | - | 0 W/m² | - |
| 1778124960 | 17.78° C | 99% | 1013.7 hPa | 0.51 mm | - | 0 W/m² | - |
| 1778124657 | 17.78° C | 99% | 1012.5 hPa | 4.32 mm | - | 0 W/m² | - |
| 1778124354 | 17.78° C | 99% | 1013.6 hPa | 9.65 mm | - | 0 W/m² | - |
| 1778124050 | 18.33° C | 99% | 1013.7 hPa | 6.1 mm | - | 0 W/m² | - |
| 1778123747 | 17.78° C | 99% | 1012.7 hPa | 1.27 mm | - | 0 W/m² | - |
| 1778123444 | 17.78° C | 99% | 1012.3 hPa | 0.51 mm | - | 0 W/m² | - |
| 1778123140 | 17.78° C | 99% | 1012.5 hPa | 0 mm | - | 0 W/m² | - |
| 1778122838 | 18.33° C | 99% | 1012.8 hPa | 0 mm | - | 0 W/m² | - |
| 1778122535 | 18.33° C | 99% | 1012.9 hPa | 0 mm | - | 0 W/m² | - |
| 1778122233 | 18.33° C | 99% | 1013.4 hPa | 0 mm | - | 0 W/m² | - |
| 1778121930 | 18.33° C | 99% | 1013 hPa | 1.27 mm | - | 0 W/m² | - |
| 1778121627 | 18.33° C | 99% | 1013.2 hPa | 2.29 mm | - | 0 W/m² | - |
| 1778121322 | 18.33° C | 99% | 1013 hPa | 2.29 mm | - | 0 W/m² | - |
| 1778121021 | 18.33° C | 99% | 1013.1 hPa | 5.33 mm | - | 0 W/m² | - |
| 1778120717 | 18.33° C | 99% | 1012.7 hPa | 4.83 mm | - | 0 W/m² | - |
| 1778120412 | 18.33° C | 99% | 1013.5 hPa | 4.32 mm | - | 0 W/m² | - |
| 1778120109 | 18.33° C | 99% | 1013.1 hPa | 7.87 mm | - | 0 W/m² | - |
* Rain latest hour (hover to see other rain measurements)
** Current wind speed in m/s (hover to see current wind gust speed)